logo
Rechercher aéroport 
image banner adimage banner adimage banner ad
image banner ad

OLRA - Rayak Airbase

Situé à Houch Hala, Lebanon

ICAO - OLRA, IATA -

Données fournies par Airmate  

Information générale

Coordonnées: N33°51'6" E35°59'35"
Élévation : 2952 feet MSL.
Variation magnétique : 5° East
Voir autres Aéroports à Beqaa Governorate

Données opérationnelles

Special qualification required
Heure actuelle UTC:
Heure actuelle locale:
METAR: OLBA 270400Z 16003KT 130V190 8000 NSC 23/08 Q1008 NOSIG
TAF: TAF OLBA 270400Z 2706/2812 33015KT 8000 NSC BECMG 2718/2721 12005KT BECMG 2806/2809 28010KT SCT040
Voir NOTAMs / SUP AIP / TFR affectant cet aéroport [VIEW]
Fréquences de communication: [VIEW]

Pistes:

Identifiant RWYQFULongueur (ft)Largeur (ft)SurfaceLDA (ft)
0443°9507148CON
22223°9507148CON

Coordonnées de l'aéroport

Adresse: Houch Hala Lebanon

Vue satellite de OLRA